www.pogodaiklimat.ru

Погода и климат >> Архив погоды >> Венгрия >> Eger


ПОГОДА в Eger

  • Прогноз погоды в Eger
  • Монитор погоды в Eger
  • Климат города

АРХИВ ПОГОДЫ в Eger

Время (UTC), дата Ветер
(напр.,м/с)
 
Видим.   Явления Облачность Т
(С)
Тd
(С)
f
(%)
Тe
(С)
Тes
(С)
Комфортность P
(гПа)
Po
(гПа)
Тmin
(С)
Tmax
(С)
R
(мм)
R24
(мм)
S
(см)
22 6.12 СЗ 1 н/о н/о -0.2 -2.7 83 -2 -2 1026.7 998.0
23 6.12 ЮЗ 1 н/о н/о 0.0 -2.7 82 -2 -2 1026.3 997.7
00 7.12 ЮЗ 1 н/о н/о 0.0 -2.7 82 -2 -2 1026.3 997.7
02 7.12 Ю 1 н/о н/о -0.1 -3.0 81 -2 -2 1025.4 996.8
01 7.12 ЮЗ 1 н/о н/о -0.1 -3.1 80 -2 -2 1025.8 997.2
03 7.12 Ю 1 н/о н/о -0.2 -2.9 82 -2 -2 1024.7 996.1
04 7.12 ЮВ 1 6000 м 10/10 1200 м
[Sc]
-0.4 -2.6 85 -2 -2 1024.6 996.0
05 7.12 ЮВ 1 6000 м в посл. час дождь со снегом 10/10 1200 м
[Sc]
-0.4 -2.3 87 -2 -2 1024.2 995.6
06 7.12 ЮВ 1 6000 м {снег} 10/10 900 м
[Sc]
-0.8 -2.1 91 -3 -3 1023.6 995.0 -0.8
08 7.12 В 1 н/о н/о -0.6 -1.9 91 -3 -3 1023.0 994.4
07 7.12 ЮВ 3 4000 м дымка 10/10 300 м
[St]
-0.9 -2.3 90 -6 -6 1023.2 994.6
09 7.12 ЮВ 2 н/о н/о -0.6 -1.4 94 -4 -4 1022.9 994.3
10 7.12 ЮВ 2 н/о н/о -0.5 -1.3 94 -4 -4 1022.4 993.8
11 7.12 ЮВ 2 н/о н/о -0.3 -1.0 95 -4 -4 1021.6 993.1
12 7.12 ЮВ 2 3000 м дымка {морось} 10/10 300 м
[St]
0.0 -0.7 95 -4 -4 1021.0 992.5 0.1
14 7.12 ЮВ 2 2000 м слабый дождь 10/10 300 м
[St]
0.0 -0.6 96 -4 -4 1019.7 991.3
13 7.12 ЮВ 2 2000 м слабый дождь 10/10 300 м
[St]
0.0 -0.6 96 -4 -4 1020.2 991.7
15 7.12 В 2 2000 м в посл. час дождь 10/10 300 м
[St]
0.0 -0.6 96 -4 -4 1019.3 990.9
16 7.12 В 2 н/о н/о +0.1 -0.3 97 -4 -4 1018.8 990.4
17 7.12 В 2 н/о н/о +0.2 -0.2 97 -4 -4 1018.4 990.0
18 7.12 В 3 3000 м дымка {дождь} 10/10 600 м
[Sc]
+0.4 -0.0 97 -4 -4 1017.5 989.2 +0.4 0.9
21 7.12 В 3 н/о н/о +0.3 -0.4 95 -5 -5 1015.1 986.8
00 8.12 В 3 н/о н/о -0.1 -0.9 94 -5 -5 1013.1 984.8
02 8.12 В 3 н/о н/о +0.3 -1.3 89 -4 -4 1012.0 983.8
01 8.12 В 3 н/о н/о 0.0 -1.1 92 -5 -5 1012.4 984.2
03 8.12 В 2 н/о н/о +0.4 -1.7 86 -3 -3 1011.1 982.9
04 8.12 В 2 6000 м 10/10 1200 м
[Sc]
+0.4 -1.5 87 -3 -3 1010.8 982.6
05 8.12 СВ 2 н/о н/о +0.4 -1.4 88 -3 -3 1010.6 982.4
06 8.12 С 1 6000 м слабый дождь 10/0
[As op]
+0.4 -0.5 94 -2 -2 1010.6 982.4 2
08 8.12 Ю 1 н/о н/о +0.2 -0.4 96 -2 -2 1010.8 982.6
07 8.12 В 1 3000 м слабый дождь 10/0 1200 м
[As op]
+0.5 -0.2 95 -2 -2 1010.5 982.4
09 8.12 СЗ 1 3000 м слабый дождь 10/0 1200 м
[As op]
+1.0 +0.4 96 -1 -1 1011.1 983.0
10 8.12 З 2 н/о н/о +1.5 +0.8 95 -2 -2 1010.8 982.8
11 8.12 С 1 н/о н/о +2.1 +0.8 91 0 0 1010.4 982.4
12 8.12 В 1 4000 м дымка {дождь} 10/10 300 м
[Sc]
+2.1 +1.1 93 0 0 1011.3 983.3 4
14 8.12 СЗ 2 6000 м 9/9 600 м
[Sc]
+3.3 +1.5 88 0 0 1011.5 983.6
13 8.12 СЗ 2 6000 м 9/9 600 м
[Sc]
+3.1 +1.5 89 0 0 1011.3 983.4
15 8.12 штиль 0 10 км 9/6 600 м
[Sc Ci sp]
+2.8 +1.3 90 +2 +2 1012.2 984.2
16 8.12 штиль 0 н/о н/о +1.3 +0.4 94 0 0 1012.6 984.5
17 8.12 Ю 1 н/о н/о +0.6 0.0 96 -2 -2 1013.3 985.1
18 8.12 СЗ 1 1200 м дымка 10/10 100 м
[St]
+0.6 0.0 96 -2 -2 1013.2 985.0 4
20 8.12 СЗ 2 н/о н/о -0.7 -1.1 97 -5 -5 1013.2 984.9
19 8.12 СЗ 3 н/о н/о +0.1 -0.3 97 -5 -5 1013.3 985.0
21 8.12 СЗ 2 н/о н/о -1.3 -1.6 98 -5 -5 1013.1 984.7
22 8.12 С 1 н/о н/о -1.1 -1.4 98 -3 -3 1012.8 984.4
23 8.12 З 1 н/о н/о -0.4 -0.7 98 -3 -3 1012.7 984.4
00 9.12 СЗ 1 н/о н/о +0.4 +0.1 98 -2 -2 1011.8 983.6
02 9.12 штиль 0 н/о н/о -1.0 -1.3 98 -2 -2 1011.0 982.7
01 9.12 штиль 0 н/о н/о 0.0 -0.3 98 -1 -1 1011.5 983.3
03 9.12 С 1 н/о н/о -0.4 -0.7 98 -3 -3 1010.3 982.1
04 9.12 штиль 0 6000 м 9/9 1200 м
[Sc]
-0.9 -1.2 98 -2 -2 1009.9 981.6
05 9.12 В 2 6000 м 9/9 1200 м
[Sc]
-0.3 -0.6 98 -4 -4 1009.2 981.0
06 9.12 ЮВ 2 2000 м дымка 10/10 180 м
[St]
+0.1 -0.2 98 -4 -4 1008.8 980.7 -1.3
08 9.12 ЮВ 4 3000 м дымка 9/9 210 м
[St]
+1.0 +0.7 98 -4 -4 1007.7 979.7
07 9.12 ЮВ 4 3000 м дымка 9/9 210 м
[St]
+0.6 +0.3 98 -5 -5 1008.1 980.0
09 9.12 Ю 3 6000 м 9/9 300 м
[Cu Sc]
+1.5 +1.2 98 -3 -3 1007.4 979.4
10 9.12 ЮВ 2 10 км в посл. час дождь 9/9 300 м
[Cu Sc]
+1.7 +1.3 97 -2 -2 1006.5 978.6
11 9.12 ЮВ 2 н/о н/о +2.3 +1.7 96 -1 -1 1005.8 978.0
12 9.12 Ю 3 15 км 9/5 900 м
[Sc Cs]
+3.6 +2.4 92 -0 0 1004.8 977.1
14 9.12 ЮЗ 2 30 км в посл. час дождь 9/9 1200 м
[Sc]
+4.0 +1.7 85 +1 +1 1004.2 976.6
13 9.12 Ю 2 20 км слабый дождь 9/9 900 м
[Sc]
+3.9 +2.1 88 +1 +1 1004.0 976.4
15 9.12 ЮЗ 1 20 км {дождь} 9/8 900 м
[Sc Ac lent]
+3.7 +1.3 84 +2 +2 1004.0 976.4
16 9.12 Ю 1 20 км 8/8 900 м
[Sc]
+3.3 +1.3 87 +2 +2 1004.4 976.7
17 9.12 СЗ 1 10 км 5/5 1200 м
[Sc]
+2.8 +1.0 88 +1 +1 1004.2 976.5
18 9.12 З 1 6000 м {дождь} 5/5 1200 м
[Sc]
+2.8 +1.2 89 +1 +1 1004.4 976.7 +4.4 0.1
20 9.12 ЮВ 1 6000 м 9/9 1200 м
[Sc]
-0.2 -1.0 94 -2 -2 1005.6 977.5
19 9.12 СЗ 1 6000 м 9/9 1200 м
[Sc]
+1.7 +0.5 92 -0 -0 1004.9 977.0
21 9.12 СЗ 2 6000 м 8/8 300 м
[Sc]
+1.0 +0.3 95 -3 -3 1005.4 977.5
22 9.12 СЗ 2 6000 м 4/4 300 м
[St]
+0.3 -0.5 94 -3 -3 1005.5 977.5
23 9.12 СЗ 1 н/о н/о +0.1 -0.6 95 -2 -2 1005.7 977.7
00 10.12 СЗ 2 6000 м 9/9 1200 м
[Sc]
+3.2 +2.0 92 0 0 1005.2 977.5
02 10.12 Ю 1 6000 м 8/8 1200 м
[Sc]
+2.6 +1.0 89 +1 +1 1005.5 977.7
01 10.12 З 1 6000 м 4/4 1200 м
[Sc]
+3.0 +1.1 87 +1 +1 1005.7 977.9
03 10.12 штиль 0 н/о н/о +3.6 +1.8 88 +3 +3 1005.2 977.5
04 10.12 С 2 6000 м 9/9 1200 м
[Sc]
+3.8 +2.2 89 +1 +1 1005.5 977.8
05 10.12 СЗ 2 6000 м 4/4 300 м
[Cu Sc]
+3.7 +1.9 88 +1 +1 1005.9 978.2
06 10.12 СЗ 4 25 км 6/4 1200 м
[Sc Ac lent]
+4.2 +1.9 85 -0 -0 1005.9 978.3 -0.3
08 10.12 СЗ 2 н/о н/о +4.3 +1.7 83 +2 +2 1007.4 979.7
07 10.12 З 2 30 км 9/9 480 м
[Cu Sc]
+4.3 +1.8 84 +2 +2 1006.4 978.8
09 10.12 СЗ 5 50 км 5/1 1300 м
[Cu hum Ac lent Ci sp]
+4.9 +1.2 77 0 +1 1007.8 980.2
10 10.12 СЗ 5
{11}
50 км 4/0
[Ac lent Ci sp]
+6.1 +1.2 71 +2 +3 1007.6 980.1
11 10.12 СЗ 5
{10}
н/о н/о +7.4 +0.6 62 +4 +4 1007.9 980.5
12 10.12 СЗ 4 50 км 4/3 1380 м
[Cu hum Ac lent Ci sp]
+8.1 -0.1 56 +5 +6 1008.2 980.9
14 10.12 СЗ 5 40 км 6/4 1000 м
[Cu Sc Ac lent Ci sp]
+6.3 -1.8 56 +3 +3 1010.3 982.7
13 10.12 СЗ 5
{11}
40 км 6/4 1080 м
[Cu Sc Ac lent Ci sp]
+7.2 -1.5 54 +4 +4 1009.1 981.7
15 10.12 СЗ 2
{8}
30 км 5/3 1000 м
[Cu hum Ac lent Ci sp]
+5.3 -2.8 56 +3 +3 1010.7 983.0
16 10.12 СЗ 2
{7}
н/о н/о +3.9 -1.7 67 +1 +1 1011.6 983.8
17 10.12 С 2
{7}
н/о н/о +2.9 -1.1 75 0 0 1012.0 984.1
18 10.12 С 3 35 км 4/3 1080 м
[Sc Ac lent Ci sp]
+3.0 -1.2 74 -1 -1 1011.9 984.0 +8.1
20 10.12 СЗ 2
{7}
н/о н/о +2.8 -1.0 76 -0 -0 1012.4 984.4
19 10.12 СЗ 2 н/о н/о +2.8 -0.8 77 -0 -0 1012.2 984.2
21 10.12 СЗ 2 н/о н/о +2.1 -1.3 78 -1 -1 1012.6 984.6
22 10.12 СЗ 3 н/о н/о +1.4 -1.5 81 -3 -3 1012.7 984.6
23 10.12 С 2 н/о н/о +0.5 -2.2 82 -3 -3 1012.9 984.7
00 11.12 СЗ 3 н/о н/о +0.5 -2.4 81 -4 -4 1012.9 984.7
02 11.12 С 3 н/о н/о -0.9 -2.9 86 -6 -6 1013.6 985.2
01 11.12 С 1 н/о н/о -0.7 -3.1 84 -3 -3 1013.6 985.3
03 11.12 С 4 н/о н/о -0.3 -2.7 84 -6 -6 1013.5 985.2
04 11.12 С 3
{8}
6000 м ясно -0.7 -2.9 85 -6 -6 1014.0 985.6
05 11.12 С 3 6000 м ясно -0.8 -2.8 86 -6 -6 1014.3 985.9
06 11.12 С 4 25 км 1/1 600 м
[Cu hum]
-1.0 -2.7 88 -7 -7 1014.4 986.0 -1.4
08 11.12 С 3 н/о н/о +0.1 -2.3 84 -5 -5 1014.6 986.3
07 11.12 СЗ 3 30 км 1/1 900 м
[Cu hum]
-1.2 -3.1 87 -6 -6 1014.6 986.2
09 11.12 СЗ 3 30 км 1/1 400 м
[Cu hum]
+1.5 -1.7 79 -3 -2 1014.4 986.3
10 11.12 СЗ 3 н/о н/о +3.1 -1.3 73 -1 -1 1014.1 986.1
11 11.12 СЗ 2 н/о н/о +4.2 -1.2 68 +2 +2 1013.7 985.8
12 11.12 СЗ 2 30 км 9/9 1200 м
[Sc]
+2.7 -0.7 78 -0 -0 1013.9 985.9
14 11.12 СЗ 3 20 км 9/9 900 м
[Sc]
+2.1 -1.9 75 -2 -2 1014.6 986.5
13 11.12 З 2 30 км 10/10 900 м
[Sc]
+2.2 -0.7 81 -1 -1 1014.3 986.2
15 11.12 З 1 20 км 9/9 900 м
[Sc]
+1.8 -1.6 78 0 0 1014.7 986.6
16 11.12 ЮЗ 1 н/о н/о +1.7 -1.5 79 0 0 1014.9 986.8
17 11.12 Ю 1 н/о н/о +1.3 -0.6 87 -1 -1 1015.0 986.8
18 11.12 ЮЗ 2 6000 м слабый дождь 10/10 600 м
[Sc]
+1.5 +0.2 91 -2 -2 1014.9 986.7
20 11.12 штиль 0 н/о н/о +1.3 +0.6 95 0 0 1014.7 986.5
19 11.12 ЮЗ 1 н/о н/о +1.4 +0.5 94 -1 -1 1014.9 986.7
21 11.12 штиль 0 н/о н/о +1.3 +0.6 95 0 0 1014.8 986.6
22 11.12 С 1 н/о н/о +1.0 +0.3 95 -1 -1 1014.7 986.5
23 11.12 СЗ 1 н/о н/о +0.8 +0.2 96 -1 -1 1014.9 986.7
00 12.12 С 1 н/о н/о +0.4 -0.2 96 -2 -2 1015.1 986.8 0.5
02 12.12 штиль 0 н/о н/о +0.4 -0.0 97 -1 -1 1015.5 987.2
01 12.12 СЗ 2 н/о н/о +0.1 -0.5 96 -4 -4 1015.4 987.1
03 12.12 З 1 н/о н/о +0.4 0.0 97 -2 -2 1015.7 987.4
04 12.12 СЗ 1 6000 м слабый дождь 9/9 600 м
[Sc]
+0.1 -0.5 96 -2 -2 1015.8 987.5
05 12.12 С 1 6000 м слабый дождь 9/9 600 м
[Sc]
+0.1 -0.5 96 -2 -2 1016.3 988.0
06 12.12 СЗ 2 6000 м в посл. час дождь {снег} 9/9 600 м
[Sc]
+0.1 -0.5 96 -4 -4 1016.9 988.5 0.0 0.7
08 12.12 С 2 н/о н/о +0.3 -0.4 95 -3 -3 1017.8 989.4
07 12.12 С 2 15 км 8/8 600 м
[Sc]
-0.2 -0.9 95 -4 -4 1017.5 989.1
09 12.12 С 3 30 км 5/3 300 м
[Cu Sc Ci sp]
+1.8 0.0 88 -3 -2 1018.0 989.8
10 12.12 СЗ 3 н/о н/о +3.1 -0.5 77 -1 -1 1018.1 990.0
11 12.12 СВ 1 н/о н/о +3.6 -1.2 71 +2 +2 1018.1 990.1
12 12.12 В 2 25 км 9/9 600 м
[Cu Sc]
+3.5 -1.6 69 +1 +1 1018.6 990.5
14 12.12 СВ 1 25 км 8/8 1200 м
[Sc]
+2.9 -1.8 71 +2 +2 1019.3 991.2
13 12.12 С 2 25 км 8/8 600 м
[Cu Sc]
+2.8 -0.6 78 -0 0 1018.8 990.7
15 12.12 С 1 25 км 9/9 1200 м
[Sc]
+2.3 -1.3 77 +1 +1 1019.9 991.7
16 12.12 С 1 н/о н/о +1.4 -1.0 84 -0 -0 1020.2 991.9
17 12.12 СЗ 1 н/о н/о +0.8 -1.0 88 -1 -1 1020.6 992.2
18 12.12 С 1 6000 м 9/9 900 м
[Sc]
+0.5 -1.3 88 -1 -1 1021.0 992.6 +3.8
20 12.12 С 2 н/о н/о +0.4 -1.7 86 -3 -3 1021.5 993.0
19 12.12 С 2 н/о н/о +0.4 -1.5 87 -3 -3 1021.4 992.9
21 12.12 С 2 н/о н/о +0.4 -1.8 85 -3 -3 1021.9 993.4
22 12.12 СЗ 2 н/о н/о -0.1 -1.8 88 -4 -4 1022.1 993.6
23 12.12 С 2 н/о н/о -0.1 -1.8 88 -4 -4 1022.2 993.7
00 13.12 СЗ 3 н/о н/о -1.1 -2.5 90 -6 -6 1022.5 993.9
02 13.12 С 3 н/о н/о -2.1 -3.4 91 -7 -7 1022.7 994.0
01 13.12 СЗ 2 н/о н/о -1.8 -3.2 90 -6 -6 1022.5 993.8
03 13.12 СЗ 3 н/о н/о -2.5 -3.8 91 -8 -8 1022.7 993.9
04 13.12 СЗ 3 6000 м ясно -3.3 -4.6 91 -9 -9 1022.6 993.7
05 13.12 С 3 6000 м ясно -2.9 -4.5 89 -8 -8 1022.6 993.8
06 13.12 СЗ 3 20 км 1/1 600 м
[Cu hum]
-3.9 -5.3 90 -9 -9 1022.6 993.7 -3.9
08 13.12 С 3 н/о н/о -2.0 -5.0 80
07 13.12 С 4 30 км 1/1 600 м
[Cu med, cong]
-3.3 -5.1 87 -9 -9 1022.8 993.9
09 13.12 С 2 30 км 1/1 400 м
[Cu hum]
+0.1 -3.6 76 -3 -2 1022.6 994.1
10 13.12 СЗ 2 н/о н/о +1.8 -1.8 77 -1 -1 1022.2 993.9
11 13.12 СЗ 2 н/о н/о +3.2 -3.4 62 +1 +1 1021.8 993.6
12 13.12 З 2 30 км 1/1 900 м
[Cu med, cong]
+3.4 -4.1 58 +1 +3 1021.7 993.5
14 13.12 СЗ 2 30 км 1/1 800 м
[Cu hum]
+3.4 -3.4 61 +1 +1 1021.2 993.1
13 13.12 З 2 н/о н/о +3.9 -2.7 62 +2 +2 1021.1 993.0
15 13.12 В 2 30 км 1/1 600 м
[Cu hum]
+1.8 -2.0 76 -1 -1 1021.7 993.4
16 13.12 В 3 н/о н/о +0.2 -2.5 82 -4 -4 1022.1 993.6
17 13.12 В 2 н/о н/о 0.0 -2.5 83 -4 -4 1022.1 993.6
18 13.12 ЮВ 1 6000 м 8/8 1200 м
[Sc]
0.0 -2.4 84 -2 -2 1022.3 993.8 +4.3
20 13.12 штиль 0 н/о н/о -0.5 -2.5 86 -2 -2 1022.9 994.3
19 13.12 штиль 0 н/о н/о -0.5 -2.4 87 -2 -2 1022.7 994.1
21 13.12 С 1 н/о н/о -0.6 -2.5 87 -3 -3 1022.8 994.2

 

Местоположение метеостанции Eger (Венгрия): широта 47.90 долгота 20.38 высота над уровнем моря 218 м.

В архиве по умолчанию представлена погода в Eger за последнюю неделю. Архивные данные за месяц целиком и за предыдущие месяцы, начиная с января 2011 года, Вы можете получить, выбрав интересующий диапазон дат из раскрывающегося списка и нажав кнопку "Ввод!".


*Определитесь, кто Вы:
робот инопланетянин человек

Внимание! Время в таблицах - всемирное. Для получения местного времени необходимо прибавить поправку, которая в Eger равна 1 ч.

Смотрите также архив погоды в соседних городах и на ближайших метеорологических станциях:

Погода в Kekesteto (Венгрия) (27 км)
Погода в Poroszlo (Венгрия) (34 км)
Погода в Miskolc (Венгрия) (37 км)
Погода в Josvafo (Венгрия) (65 км)
Погода в Lucenec (Словакия) (68 км)
Погода в Szecseny (Польша) (69 км)
Погода в Szolnok (Венгрия) (87 км)
Погода в Debrecen (Венгрия) (103 км)
Погода в Budapest (Венгрия) (104 км)
Погода в Kosice (Словакия) (106 км)

Пояснения к столбцам:

Ветер - указаны скорость ветра в м/с - средняя за 10 мин, порывы в срок и между сроками (в фигурных скобках) и направление, откуда дует ветер: С - северный, СВ - северо-восточный, В - восточный, ЮВ - юго-восточный, Ю - южный, ЮЗ - юго-западный, З - западный, СЗ - северо-западный.
Видимость - горизонтальная дальность видимости в метрах или километрах. При видимости от 1 до 10 км при отсутствии осадков обычно наблюдается дымка, при ухудшении видимости до 1 км и менее - туман. В сухую погоду видимость может ухудшаться дымом, пылью или мглою.
Явления - указаны атмосферные явления, наблюдавшиеся в срок или в последний час перед сроком; фигурными скобками обозначены явления, наблюдавшиеся между сроками (за 1-3 часа до срока); квадратными скобками обозначены град или гололедные отложения с указанием их диаметра в мм.
Облачность - указаны через наклонную черту общая и нижняя облачность в баллах и высота нижней границы облаков в метрах; квадратными скобками обозначены формы облаков: Ci - перистые, Cs - перисто-слоистые, Cc - перисто-кучевые, Ac - высококучевые, As - высокослоистые, Sc - слоисто-кучевые, Ns - слоисто-дождевые, Cu - кучевые, Cb - кучево-дождевые. Подробнее классификацию облаков см. в Атласе облаков (PDF).
T - Температура воздуха - температура, измеренная на высоте 2 м над землей.
Td - Температура точки росы - температура, при понижении до которой содержащийся в воздухе водяной пар достигнет насыщения.
f - Относительная влажность воздуха - влажноcть воздуха, измеренная на высоте 2 м над землей.
Te - Эффективная температура - температура, которую ощущает одетый по сезону человек в тени. Характеристика душности погоды. При расчете учитывается влияние влажности воздуха и скорости ветра на теплоощущения человека.
Tes - Эффективная температура на солнце - температура, которую ощущает человек, с поправкой на солнечный нагрев. Характеристика знойности погоды. Зависит от высоты солнца над горизонтом, облачности и скорости ветра. Ночью, в пасмурную погоду, а также при ветре 12 м/с и более поправка равна нулю.
P - Атмосферное давление - приведенное к уровню моря атмосферное давление.
Po - Атмосферное давление - измеренное на уровне метеостанции атмосферное давление.
Tmin - Минимальная температура - минимум температуры воздуха на высоте 2 м над землей.
Tmax - Максимальная температура - максимум температуры воздуха на высоте 2 м над землей.
R - Количество осадков - Количество выпавших осадков за период времени, мм. При наведении курсора мыши на число - период времени, за который выпало указанное количество осадков.
R24 - Количество осадков - Количество выпавших осадков за 24 часа, мм.
S - Снежный покров - Высота снежного покрова, см. При наведении курсора мыши на число - состояние снежного покрова и степень покрытия местности в баллах.